Location: *
(48.8780°N, 19.2358°E)
Time: 01:54:34
(UTC+00:00)

CZ-2C R/B - Pass Details

Date: 18 October 2019
Orbit: 703 x 908 km, 98.1° (Epoch: 13 November)

Event Time Altitude Azimuth Distance (km) Brightness Sun altitude
Exits shadow 17:30:57 23° 63° (ENE) 1,836 4.5 -17.6°
Maximum altitude 17:31:18 23° 58° (ENE) 1,830 4.5 -17.6°
Drops below altitude 10° 17:35:42 10° 9° (N) 2,583 5.7 -18.4°
Sets 17:38:33 0° 355° (N) 3,507 6.6 -18.8°
